Location: Newark
(34.9500°N, 139.9667°E)
Time: 00:35:23
(UTC+00:00)

Transit 2A - Pass Details

Date: 09 December 2019
Orbit: 601 x 958 km, 66.7° (Epoch: 26 January)

Event Time Altitude Azimuth Distance (km) Brightness Sun altitude
Rises 06:04:04 0° 349° (N) 2,874 8.7 13.5°
Reaches altitude 10° 06:06:49 10° 7° (N) 1,993 7.8 13.1°
Maximum altitude 06:10:05 20° 55° (NE) 1,504 7.0 12.6°
Drops below altitude 10° 06:13:29 10° 101° (ESE) 2,092 7.9 12.0°
Sets 06:16:27 0° 119° (ESE) 3,067 8.9 11.5°
